INMARSAT 4-F2 (SOUTHPA*)

Last updated on Sat Sep 05 2026 00:03:32 GMT+0000 (Coordinated Universal Time)

1 28899U 05044A 26247.53794689 -.00000267 00000+0 00000+0 0 9995 2 28899 5.1977 43.7100 0002362 128.8111 148.3121 1.00271869 76318
UTC large
Height (km)
Speed (km/s)
/
Latitude / Longitude
Inclination (degrees)
Orbital Period (minutes)
Azimuth
Elevation
Range (km)
Doppler Factor

Next 0 passes for location: London (51.5072 / 0.1276)

No passes found over London.
INMARSAT 4-F2 (SOUTHPA*)